Temperature
20 20 20 19 17 17 19 19 19 19 19 19 19 19 19 18 18 18 17 18 18 18 18 18 18 18 18 18 18 18 18 18 18 17 17 17 17 17 17 17 17 17 17 17 17 17 17 17 17
20 20 20 19 17 18 19 19 19 19 19 19 19 19 18 17 17 17 17 17 18 18 18 18 18 18 18 18 18 18 17 17 17 17 17 17 17 17 17 17 17 17 17 17 17 17 17 17 17
20 20 19 16 17 18 19 19 19 19 19 19 19 18 18 17 17 17 17 17 18 18 18 18 18 18 18 18 17 17 17 17 17 17 17 17 17 17 17 17 17 17 17 17 17 17 17 17 17
20 20 19 17 19 19 19 19 19 19 20 19 18 17 17 17 18 18 18 18 18 18 18 18 18 18 18 17 17 17 17 17 17 16 16 16 16 16 16 17 16 16 16 17 17 17 17 17 17
20 19 17 18 19 19 18 19 19 19 19 18 18 17 17 17 18 18 18 18 18 17 17 17 17 17 17 17 17 17 17 16 16 16 16 16 16 16 16 16 16 16 16 16 17 17 16 17 17
20 17 17 18 19 18 18 18 19 18 18 18 18 17 17 17 18 18 18 17 17 17 17 17 17 17 17 17 17 17 16 16 16 16 16 16 16 16 16 16 16 16 16 16 16 16 16 16 17
19 16 17 18 18 19 19 19 18 18 18 18 18 17 17 17 17 17 17 17 17 17 17 17 17 17 17 17 17 16 16 16 16 16 16 16 16 16 16 16 16 16 16 16 16 16 16 16 16
19 16 17 17 18 19 19 19 18 19 18 18 18 17 17 17 17 17 17 17 17 17 17 17 17 17 17 17 16 16 16 16 16 16 16 16 16 16 16 16 16 16 16 16 16 16 16 16 16
19 16 17 18 18 18 18 19 19 19 19 18 18 18 18 17 17 17 17 17 17 17 17 17 17 17 17 16 16 16 16 16 16 16 16 16 16 16 16 16 16 16 16 16 16 16 16 16 16
18 16 18 18 18 18 18 18 18 19 18 17 17 18 17 17 17 17 17 17 17 17 17 17 17 17 16 16 16 16 16 16 16 16 16 16 16 16 16 16 16 16 16 16 16 16 16 16 16
18 17 18 18 19 19 19 19 19 18 18 18 17 17 17 17 17 17 17 17 17 17 17 17 17 17 17 16 16 16 16 16 16 16 16 16 16 16 16 16 16 16 16 16 16 16 16 16 16
18 18 18 19 19 19 19 19 18 18 18 19 19 18 17 17 17 17 17 17 17 17 17 17 17 17 16 16 16 16 16 16 16 16 16 16 16 16 16 16 16 15 15 16 16 16 16 16 16
18 18 18 19 19 19 19 18 18 18 19 19 18 18 18 18 17 17 17 17 17 17 17 17 17 16 16 16 16 16 16 16 16 16 16 16 16 16 16 16 15 15 15 15 15 15 16 16 16
18 18 18 18 19 19 18 18 18 18 18 18 18 18 18 18 17 17 17 17 17 17 17 17 17 16 16 16 16 16 16 16 16 16 16 16 16 16 16 15 15 15 15 15 15 15 15 15 16
18 18 18 18 18 18 19 18 17 18 18 18 18 18 18 18 18 18 17 17 17 17 17 17 16 16 16 16 16 16 16 16 16 16 16 16 16 16 16 15 15 15 15 15 15 15 15 15 15
18 17 17 18 18 18 18 17 17 18 18 18 18 18 18 18 18 18 17 17 17 17 17 17 16 16 16 16 16 16 16 16 16 16 16 16 16 16 15 15 15 15 15 15 15 15 15 15 15
16 16 17 17 18 18 18 17 17 17 17 17 18 18 18 18 18 18 17 17 17 17 17 17 16 16 16 16 16 16 16 16 16 16 16 16 16 15 15 15 15 15 15 15 15 15 15 15 15
16 16 17 17 17 17 17 17 17 17 17 17 17 18 18 18 18 18 18 17 17 17 17 17 17 16 16 16 16 16 16 16 16 16 16 16 15 15 15 15 15 15 15 15 15 15 15 15 15
17 17 16 17 17 17 17 16 16 17 17 17 17 17 18 18 18 18 18 18 17 17 17 17 17 16 16 16 16 16 16 16 16 16 15 15 15 15 15 15 15 15 15 15 15 15 15 15 15
17 17 16 17 18 18 17 17 16 16 16 17 17 17 18 18 18 18 18 18 18 17 17 17 17 16 16 16 16 16 16 15 15 15 15 15 15 15 15 15 15 15 15 15 15 15 15 15 15
17 17 17 17 17 17 17 16 16 16 17 17 17 18 18 18 18 18 18 18 18 17 17 17 17 16 16 16 16 16 16 15 15 15 15 15 15 15 15 15 15 15 15 15 15 15 15 15 15
17 18 17 17 16 15 17 15 16 16 16 16 17 17 18 18 18 18 18 18 18 18 17 17 17 16 16 16 16 16 16 15 15 15 15 15 15 15 15 15 15 15 15 15 15 15 15 15 15
17 18 17 17 16 15 16 16 15 15 15 15 16 17 18 18 18 18 18 18 18 18 17 17 17 16 16 16 16 16 16 15 15 15 15 15 15 15 15 15 15 15 15 15 15 15 15 15 15
17 17 16 15 15 15 16 15 15 15 15 16 16 17 18 18 18 18 18 18 18 18 17 17 17 17 16 16 16 16 16 15 15 15 15 15 15 15 15 15 15 15 15 15 15 15 15 15 15
17 15 15 15 14 15 15 15 15 16 16 16 17 17 18 18 18 18 18 18 18 18 17 17 17 17 16 16 16 16 16 16 15 15 15 15 15 15 15 15 15 15 15 15 15 15 15 15 15
16 16 15 15 15 15 15 15 16 17 17 18 18 18 18 18 18 18 18 18 18 18 17 17 17 17 16 16 16 16 16 16 15 15 15 15 15 15 15 15 15 15 15 15 15 15 14 14 14
16 15 15 15 15 15 15 15 16 17 16 17 17 17 17 18 18 18 18 18 18 18 18 17 17 17 16 16 16 16 16 16 15 15 15 15 15 15 15 15 15 15 14 14 14 14 14 14 14
16 15 14 15 15 15 16 16 16 17 16 16 16 16 17 18 18 18 18 18 18 18 17 17 17 17 17 16 16 16 16 16 15 15 15 15 15 15 15 15 15 14 14 14 14 14 14 14 14
16 16 14 14 14 15 15 16 17 17 16 16 16 17 17 18 18 18 18 18 18 17 17 17 17 17 17 16 16 16 16 16 15 15 15 15 15 15 15 14 14 14 14 14 14 14 14 14 14
17 16 15 15 15 14 14 15 17 17 16 16 17 17 18 18 18 18 18 18 17 17 17 17 17 17 17 16 16 16 16 16 16 15 15 15 15 15 14 14 14 14 14 14 14 14 14 14 14
Wind_Speed
5 3 3 4 5 5 2 2 1 2 3 3 4 6 6 4 2 3 2 5 6 6 8 11 12 13 14 14 14 14 13 13 13 13 12 12 11 11 10 10 10 9 9 9 8 8 8 8 8
2 1 4 5 5 3 1 2 2 2 4 4 5 6 6 5 4 5 3 5 7 7 8 10 11 12 13 13 13 13 13 13 12 12 12 11 10 10 9 9 9 9 8 8 8 7 8 8 7
1 3 4 4 4 3 1 1 3 4 4 3 4 5 4 3 3 3 4 7 7 7 9 10 12 12 12 13 13 13 13 12 12 11 11 10 9 9 9 8 8 8 7 7 7 7 7 8 7
3 4 4 5 3 1 2 2 3 4 4 6 5 5 4 3 2 4 7 8 8 6 9 10 12 12 12 12 12 12 12 11 11 10 9 8 8 8 7 7 7 7 7 6 6 6 7 7 7
4 4 5 3 1 1 2 1 2 3 3 4 5 5 3 4 6 9 8 7 8 7 7 10 12 12 12 12 12 12 11 10 9 8 7 7 7 7 6 6 6 5 5 5 5 5 5 6 6
4 4 4 2 2 2 2 2 4 5 5 4 5 4 3 3 7 7 7 7 7 7 7 9 11 12 12 11 11 10 10 9 8 7 6 6 5 5 5 4 4 4 4 4 4 4 4 4 5
4 4 3 2 1 2 2 2 4 5 5 4 4 5 3 3 5 7 7 7 7 7 7 7 7 9 10 10 9 9 8 8 7 6 5 5 4 4 3 3 4 3 3 3 3 3 4 4 5
4 4 4 2 2 1 1 3 3 5 4 3 3 5 4 4 6 8 8 7 7 6 6 5 6 7 7 7 7 7 7 6 6 5 5 5 5 5 4 4 4 4 4 4 4 4 5 5 5
4 5 3 1 2 1 2 4 3 3 5 4 4 3 6 10 10 9 7 6 5 5 4 4 5 6 6 5 5 6 5 6 6 6 6 6 6 6 5 5 5 4 4 5 5 5 6 6 6
4 4 1 0 2 3 3 4 3 4 5 4 6 7 9 11 10 10 7 6 4 3 2 3 3 4 4 4 5 5 6 6 6 6 6 6 5 5 5 6 6 6 5 5 6 7 7 7 7
3 3 1 1 1 4 4 3 3 6 3 4 8 10 11 11 9 8 7 5 4 3 2 2 2 3 4 4 4 5 5 5 6 6 6 5 5 6 6 6 7 7 7 6 6 7 7 7 6
3 2 1 1 2 3 4 4 4 3 2 5 9 12 11 11 9 8 7 5 4 3 2 2 3 3 3 4 4 4 4 4 4 5 5 5 4 4 4 4 5 5 5 5 6 5 6 6 6
3 2 3 3 5 5 6 5 4 3 5 8 10 10 11 10 8 6 6 5 5 3 2 1 3 3 3 4 3 4 3 3 4 5 5 4 3 3 3 4 4 5 5 5 4 4 5 5 5
2 4 4 4 4 4 6 4 4 3 6 9 9 8 8 8 8 6 6 6 5 5 4 3 3 4 4 3 3 3 3 4 5 5 5 5 4 3 3 3 4 4 5 5 5 4 4 3 4
3 5 5 4 3 2 5 4 1 3 7 7 6 6 6 6 6 7 7 7 6 5 4 4 5 4 5 4 3 3 4 5 4 4 5 5 5 5 4 3 3 4 5 6 6 5 5 4 4
4 4 3 3 2 1 5 2 1 3 7 6 5 5 6 5 5 5 6 6 6 5 5 5 5 5 4 4 3 4 5 5 4 4 5 5 5 5 5 3 3 4 5 5 3 3 4 4 4
5 3 1 2 2 1 4 3 1 3 6 6 6 6 6 5 5 5 5 6 6 6 6 5 5 6 5 4 4 5 5 5 5 5 5 5 5 6 6 4 4 5 5 4 3 4 3 3 4
3 3 1 1 2 2 3 2 2 3 5 6 5 5 5 6 6 6 6 5 6 6 5 6 5 5 5 4 4 4 4 4 5 5 4 4 5 6 6 5 4 5 4 4 4 4 4 3 3
5 4 2 1 1 2 3 3 4 4 4 4 5 6 6 6 3 5 6 6 6 6 6 6 6 5 5 3 3 3 2 2 3 4 5 5 5 5 6 4 4 4 4 3 3 3 5 4 3
4 4 1 1 1 2 2 3 4 5 6 7 7 8 8 6 4 5 6 6 6 7 6 6 6 6 4 3 3 2 2 2 1 3 5 6 5 5 5 4 3 3 3 4 4 3 3 3 4
2 4 3 2 2 3 2 3 3 4 4 5 6 7 7 9 9 8 8 7 7 7 7 7 6 6 5 5 4 3 4 3 3 3 3 4 5 5 5 4 4 3 3 3 3 3 4 3 4
2 3 4 3 3 1 1 2 5 5 5 6 7 7 8 8 9 9 9 9 8 8 7 7 6 6 5 6 5 5 3 2 0 0 1 3 5 5 5 5 5 4 3 3 3 3 3 3 2
3 3 4 3 3 1 1 1 6 2 6 9 9 8 9 10 10 11 11 10 8 7 6 6 6 5 5 5 6 6 4 2 1 2 3 3 4 5 5 5 5 4 3 3 4 4 4 3 2
4 6 6 5 4 1 4 4 6 5 8 7 9 9 10 9 9 9 8 7 6 6 6 6 7 5 5 6 6 6 6 5 4 2 2 2 2 3 5 5 5 4 4 4 4 4 4 4 4
4 5 3 3 2 4 3 3 8 8 7 9 10 10 9 9 9 9 9 9 9 8 8 7 8 6 6 6 6 6 6 6 5 3 2 2 1 2 2 3 4 4 4 5 5 5 4 4 4
3 6 5 3 3 4 2 5 7 6 5 6 6 7 8 8 8 10 10 10 10 10 9 9 9 7 7 6 6 5 5 4 3 3 3 2 1 1 2 3 4 5 5 5 5 4 4 4 4
5 3 4 4 2 2 4 6 7 2 1 2 4 6 8 9 9 9 9 9 9 10 10 10 10 8 7 7 6 5 5 5 4 4 3 2 2 2 4 5 5 5 6 6 5 5 4 5 5
5 7 4 3 2 2 5 5 4 4 2 1 4 6 7 7 8 8 8 9 9 9 9 9 9 9 8 7 6 5 5 5 5 4 4 3 3 3 4 4 5 5 5 6 5 5 4 6 4
4 4 4 4 4 3 3 6 5 6 5 5 6 6 7 8 8 8 7 8 8 8 9 9 9 8 7 7 6 6 5 5 4 4 4 4 3 4 4 4 5 5 5 5 5 5 5 6 5
5 6 7 4 3 4 3 7 6 5 5 5 6 6 6 7 7 7 7 7 8 9 9 9 9 9 8 8 7 6 5 5 5 4 4 4 4 4 4 5 5 4 4 4 5 5 5 5 4
Wind_Direction
341 33 79 60 55 54 44 338 65 68 57 54 76 86 95 82 102 136 118 128 123 121 123 127 126 122 121 120 118 115 113 110 110 109 107 105 104 103 102 101 99 96 93 90 87 87 84 82 78
350 74 57 59 80 75 342 339 86 86 128 124 72 69 73 67 67 102 121 131 127 123 119 126 126 122 120 120 119 116 113 110 109 108 106 104 103 102 101 101 98 94 89 87 83 83 81 78 74
35 54 76 70 90 142 163 84 117 92 96 85 77 57 69 84 98 123 146 133 121 119 122 130 126 124 123 121 119 116 114 111 108 106 104 102 101 101 99 96 95 92 87 82 78 77 75 73 70
73 46 56 71 87 194 173 137 135 116 69 50 85 68 60 59 123 135 129 123 116 109 119 129 128 127 124 121 119 118 115 112 110 107 105 104 101 97 96 94 91 88 85 78 71 69 68 66 63
59 73 64 61 56 17 46 93 108 82 73 61 81 84 47 14 94 111 117 117 115 108 113 126 125 122 121 118 117 115 112 110 108 105 101 100 97 96 94 88 84 81 77 71 64 59 59 57 57
53 65 83 90 44 24 42 59 90 80 85 83 79 87 56 68 105 111 110 108 110 108 109 118 120 119 118 115 113 110 106 103 100 97 92 89 90 93 92 86 78 71 63 58 55 51 50 52 61
97 88 107 109 80 53 72 78 91 99 84 82 97 93 86 88 106 108 103 100 96 96 95 94 105 111 115 114 112 111 104 98 93 89 83 78 75 70 72 66 64 58 45 41 47 52 54 56 64
112 99 85 73 106 78 54 86 78 86 93 88 90 122 150 152 121 104 93 88 88 82 77 79 82 85 88 93 103 103 97 91 84 76 69 59 48 39 36 31 35 40 39 41 52 58 60 62 65
84 76 94 147 138 123 90 94 76 70 94 69 63 110 138 131 120 110 101 89 88 87 69 69 72 72 74 76 81 78 75 70 65 57 56 53 41 29 19 13 20 27 35 43 52 61 65 65 63
75 100 143 209 160 131 107 97 113 92 85 78 78 83 114 123 128 128 130 129 126 115 91 84 80 74 70 67 61 55 52 50 49 49 50 51 44 28 22 17 22 26 37 44 50 57 60 57 55
83 129 165 20 95 113 111 96 89 117 117 153 141 134 131 130 133 136 139 143 151 143 126 106 100 84 79 64 62 55 51 49 44 44 44 47 40 29 29 28 25 31 38 40 42 50 52 53 51
89 51 84 41 84 92 109 112 94 113 164 142 140 139 138 142 149 151 151 150 140 137 154 123 110 92 83 79 69 67 63 57 47 40 45 52 42 32 29 33 31 39 43 45 47 52 54 53 52
76 58 55 64 70 88 93 89 105 89 95 110 121 131 146 153 154 152 152 141 136 149 162 144 124 112 91 81 69 70 64 66 60 53 51 62 65 48 41 45 49 49 51 53 55 58 57 53 48
97 85 59 42 56 68 94 75 84 101 115 120 133 147 157 160 158 155 155 153 158 164 165 145 124 115 105 93 83 70 71 71 66 55 50 68 80 77 67 56 49 43 49 59 62 63 61 53 51
88 82 53 24 42 68 92 59 70 139 129 130 146 157 161 170 164 168 170 167 166 162 152 147 136 117 110 99 89 82 75 76 64 53 57 67 79 83 80 68 51 42 58 66 64 57 57 55 53
59 68 60 347 22 58 110 153 275 138 139 146 157 166 169 182 182 176 169 161 156 149 149 155 147 130 117 103 88 78 74 72 59 57 63 65 75 83 81 73 55 55 66 64 61 53 56 50 51
48 84 94 345 14 63 115 175 221 157 157 165 173 180 183 184 183 177 171 165 159 157 152 147 133 131 124 109 90 77 69 63 55 56 57 60 70 79 83 73 64 71 67 54 58 54 64 62 54
154 122 101 319 343 96 125 191 216 180 173 183 185 186 192 194 197 178 172 164 152 150 146 144 133 131 123 104 82 64 55 43 46 47 47 64 73 80 82 73 65 71 69 56 55 62 55 61 56
141 128 129 271 278 118 162 210 231 204 187 195 199 197 200 209 191 160 162 153 145 145 148 155 148 144 129 108 100 90 68 30 28 29 39 60 71 77 82 77 64 63 73 73 74 75 62 44 31
124 118 136 336 33 128 169 235 236 216 209 206 204 209 203 197 174 165 163 160 164 162 162 163 161 155 145 128 117 113 110 75 40 16 31 41 61 73 85 81 73 68 77 67 62 72 79 43 31
156 169 186 180 45 48 93 311 244 241 217 216 214 209 205 197 188 180 176 177 175 173 173 171 168 158 146 131 111 87 66 47 33 18 11 12 47 69 78 83 83 75 79 81 66 69 90 84 37
204 201 165 143 106 322 107 273 270 231 229 227 221 211 209 205 191 183 183 184 187 184 173 164 160 156 151 144 138 135 131 123 113 351 11 17 43 60 72 79 82 79 77 82 71 69 78 102 78
184 130 122 120 119 23 309 206 279 230 234 235 222 212 212 204 194 189 188 189 187 178 168 164 155 155 154 152 147 139 132 131 99 60 56 35 30 43 60 72 80 77 74 78 75 72 72 81 99
120 76 64 52 74 295 233 192 272 228 221 224 214 208 207 199 193 189 182 176 172 166 160 158 156 155 151 149 147 146 144 138 122 103 83 45 30 28 43 65 71 73 74 76 80 80 80 80 86
86 91 48 10 8 260 246 206 248 243 223 212 209 207 203 192 184 181 177 176 173 171 167 162 159 157 152 149 150 153 152 151 151 152 141 115 63 35 30 54 67 69 76 81 85 82 75 76 83
153 137 154 186 226 283 274 240 258 263 245 219 202 191 186 184 184 187 186 181 179 176 169 165 165 161 159 157 158 153 153 151 154 154 150 142 127 103 72 74 76 79 83 85 85 80 74 74 75
133 153 163 137 175 274 280 282 302 317 347 151 159 163 183 188 186 188 186 181 178 176 175 173 168 164 166 166 158 151 150 153 155 152 139 130 122 109 87 85 82 78 81 84 84 79 71 74 68
140 143 113 125 150 277 300 287 261 275 273 197 182 187 192 188 187 185 184 181 180 178 173 170 166 169 169 164 164 160 154 156 153 142 137 131 120 101 103 92 89 85 80 82 83 80 72 75 61
130 130 130 129 152 161 285 282 235 223 220 212 214 202 192 190 189 186 182 177 171 167 168 170 167 164 164 163 159 152 154 153 146 144 147 139 126 118 114 108 100 96 90 88 90 84 80 80 66
170 170 152 154 202 178 195 271 281 236 226 216 218 203 190 190 186 178 172 165 166 168 171 173 171 169 170 164 158 157 153 147 146 149 148 138 131 121 117 113 107 105 100 97 101 99 89 89 79
Height
1499 1498 1498 1499 1503 1511 1514 1510 1505 1506 1506 1507 1507 1507 1510 1513 1517 1523 1520 1519 1521 1524 1525 1527 1529 1530 1532 1533 1533 1534 1535 1536 1537 1537 1538 1539 1540 1540 1541 1541 1542 1542 1542 1543 1543 1544 1544 1544 1545
1499 1499 1500 1500 1509 1521 1517 1508 1507 1506 1507 1508 1508 1510 1511 1514 1515 1517 1519 1521 1523 1525 1527 1528 1530 1531 1532 1534 1535 1535 1536 1537 1538 1538 1539 1540 1540 1541 1542 1542 1542 1543 1543 1544 1544 1544 1545 1545 1546
1499 1499 1501 1503 1512 1519 1514 1508 1507 1507 1508 1508 1510 1512 1514 1516 1517 1518 1520 1522 1525 1527 1528 1530 1531 1532 1533 1535 1536 1537 1537 1538 1539 1539 1540 1541 1541 1542 1542 1543 1543 1543 1544 1544 1545 1545 1545 1546 1546
1500 1501 1502 1508 1513 1511 1508 1507 1507 1507 1508 1509 1511 1515 1517 1519 1519 1520 1522 1524 1526 1528 1530 1531 1532 1533 1535 1536 1537 1538 1539 1539 1540 1541 1541 1542 1542 1543 1543 1544 1544 1544 1545 1545 1545 1546 1546 1546 1547
1500 1501 1507 1513 1512 1509 1507 1507 1508 1508 1510 1512 1513 1516 1519 1521 1521 1522 1524 1526 1528 1530 1531 1533 1534 1535 1536 1537 1538 1539 1540 1541 1542 1542 1543 1543 1544 1544 1544 1544 1545 1545 1545 1545 1546 1546 1547 1547 1547
1501 1502 1514 1518 1513 1510 1509 1509 1509 1510 1512 1514 1515 1518 1521 1523 1523 1525 1526 1528 1530 1532 1533 1535 1536 1537 1538 1539 1540 1541 1542 1543 1543 1544 1544 1544 1545 1545 1545 1545 1545 1546 1546 1546 1546 1547 1547 1548 1548
1502 1507 1514 1514 1514 1512 1510 1510 1511 1512 1514 1516 1517 1519 1523 1524 1526 1527 1528 1530 1532 1534 1535 1537 1538 1539 1540 1541 1542 1543 1543 1544 1545 1545 1546 1546 1546 1546 1546 1546 1546 1547 1547 1547 1547 1548 1548 1548 1549
1502 1507 1513 1515 1515 1513 1511 1511 1513 1514 1516 1518 1519 1520 1523 1525 1527 1529 1530 1532 1534 1536 1537 1539 1540 1541 1542 1543 1544 1545 1545 1545 1546 1547 1547 1547 1547 1547 1547 1548 1548 1548 1548 1548 1548 1549 1549 1549 1550
1503 1511 1517 1515 1514 1513 1511 1512 1514 1515 1517 1519 1520 1521 1523 1526 1528 1530 1532 1533 1536 1538 1540 1541 1542 1543 1544 1545 1546 1546 1546 1547 1548 1548 1548 1548 1548 1549 1549 1549 1549 1549 1549 1549 1549 1550 1550 1550 1551
1504 1514 1513 1511 1510 1511 1512 1513 1515 1517 1518 1520 1521 1523 1525 1527 1529 1531 1533 1535 1537 1540 1542 1543 1544 1545 1546 1547 1547 1548 1548 1549 1549 1550 1550 1550 1550 1550 1550 1550 1550 1550 1550 1550 1550 1551 1551 1551 1552
1506 1511 1510 1510 1510 1510 1512 1514 1516 1517 1520 1521 1522 1524 1526 1528 1530 1532 1535 1537 1539 1541 1543 1545 1546 1547 1548 1549 1549 1550 1550 1551 1551 1551 1551 1551 1551 1551 1551 1551 1551 1551 1551 1551 1551 1552 1552 1552 1552
1508 1510 1510 1510 1510 1511 1513 1515 1517 1519 1520 1521 1523 1524 1527 1529 1531 1534 1536 1538 1541 1543 1544 1546 1547 1549 1549 1550 1551 1551 1552 1552 1553 1553 1553 1553 1553 1552 1552 1552 1552 1552 1552 1552 1552 1552 1553 1553 1553
1510 1511 1511 1512 1512 1513 1515 1517 1518 1520 1522 1523 1525 1527 1529 1531 1533 1536 1537 1540 1542 1544 1546 1547 1549 1550 1551 1551 1552 1553 1553 1554 1554 1554 1554 1554 1554 1554 1553 1553 1553 1553 1553 1553 1553 1553 1553 1553 1554
1511 1512 1513 1514 1514 1515 1516 1519 1520 1522 1523 1524 1526 1528 1530 1532 1535 1537 1538 1540 1543 1544 1546 1548 1549 1551 1552 1552 1553 1554 1555 1555 1556 1556 1556 1555 1555 1555 1555 1554 1554 1554 1554 1554 1554 1554 1554 1554 1554
1512 1514 1516 1516 1516 1517 1518 1523 1523 1523 1524 1526 1528 1530 1532 1534 1536 1538 1540 1541 1543 1545 1547 1549 1550 1551 1552 1553 1554 1555 1556 1556 1557 1557 1557 1557 1556 1556 1556 1555 1555 1555 1555 1555 1554 1554 1554 1554 1555
1514 1519 1524 1520 1518 1518 1523 1530 1525 1524 1525 1527 1529 1531 1533 1535 1536 1539 1541 1543 1544 1546 1548 1549 1551 1552 1553 1554 1555 1556 1556 1557 1558 1558 1558 1558 1557 1557 1557 1556 1556 1556 1556 1555 1555 1555 1555 1555 1555
1522 1527 1527 1523 1519 1519 1522 1527 1524 1525 1526 1527 1529 1531 1533 1535 1537 1539 1541 1543 1545 1547 1548 1550 1551 1553 1554 1555 1556 1557 1557 1558 1558 1558 1558 1558 1558 1558 1557 1557 1557 1556 1556 1556 1556 1556 1556 1556 1556
1527 1528 1527 1526 1522 1521 1524 1526 1525 1525 1526 1527 1529 1530 1533 1534 1536 1539 1541 1543 1545 1547 1549 1550 1552 1553 1555 1556 1557 1557 1558 1558 1559 1559 1559 1559 1559 1558 1558 1558 1557 1557 1557 1557 1557 1557 1557 1557 1557
1520 1525 1528 1526 1521 1523 1525 1526 1524 1524 1526 1527 1528 1530 1532 1533 1536 1539 1541 1543 1545 1547 1549 1551 1552 1553 1555 1556 1557 1558 1558 1559 1560 1560 1560 1560 1560 1559 1559 1559 1558 1558 1558 1558 1558 1558 1558 1558 1559
1520 1526 1528 1525 1522 1523 1526 1526 1524 1524 1524 1525 1527 1528 1530 1532 1535 1537 1540 1542 1545 1547 1548 1550 1552 1553 1555 1556 1557 1558 1559 1560 1560 1561 1561 1561 1561 1560 1560 1560 1559 1559 1559 1559 1559 1559 1559 1559 1560
1522 1525 1526 1526 1524 1524 1527 1530 1526 1523 1523 1524 1525 1526 1528 1531 1533 1536 1538 1541 1543 1546 1548 1550 1552 1554 1555 1557 1558 1559 1560 1561 1561 1562 1562 1562 1562 1561 1561 1561 1560 1560 1560 1560 1560 1561 1561 1561 1561
1524 1518 1521 1524 1530 1535 1531 1541 1528 1524 1523 1522 1522 1523 1525 1528 1531 1534 1536 1539 1542 1545 1547 1550 1552 1554 1555 1557 1558 1559 1560 1561 1562 1562 1562 1562 1562 1562 1562 1562 1562 1561 1561 1561 1561 1562 1562 1562 1562
1518 1516 1520 1524 1530 1536 1534 1539 1532 1524 1524 1520 1519 1520 1522 1525 1528 1531 1534 1537 1541 1544 1546 1549 1551 1553 1555 1557 1558 1559 1560 1561 1562 1563 1563 1563 1563 1563 1563 1563 1563 1562 1562 1562 1562 1563 1563 1563 1563
1515 1520 1525 1530 1535 1544 1536 1539 1535 1525 1518 1514 1514 1516 1518 1522 1525 1529 1532 1536 1539 1542 1545 1548 1550 1553 1555 1556 1558 1559 1560 1561 1562 1563 1563 1563 1564 1564 1564 1564 1564 1564 1564 1564 1564 1564 1564 1564 1564
1518 1530 1543 1545 1549 1546 1533 1535 1529 1512 1509 1508 1510 1512 1515 1519 1522 1526 1529 1533 1537 1540 1543 1546 1549 1552 1554 1556 1558 1559 1560 1561 1562 1563 1564 1564 1565 1565 1565 1565 1565 1565 1565 1565 1565 1565 1565 1565 1564
1521 1527 1542 1550 1551 1545 1534 1535 1519 1506 1504 1504 1506 1509 1512 1516 1519 1523 1526 1530 1534 1538 1541 1544 1548 1551 1553 1556 1557 1559 1560 1561 1563 1564 1564 1565 1565 1566 1566 1566 1566 1566 1566 1566 1566 1566 1566 1565 1565
1522 1527 1528 1538 1540 1544 1537 1527 1513 1504 1503 1503 1505 1507 1510 1514 1517 1521 1524 1528 1532 1535 1539 1542 1546 1549 1552 1555 1557 1558 1560 1561 1563 1564 1565 1565 1566 1566 1566 1566 1566 1566 1566 1567 1567 1566 1566 1566 1566
1515 1521 1532 1537 1544 1547 1538 1529 1522 1509 1506 1505 1505 1506 1508 1512 1515 1518 1522 1525 1529 1533 1537 1541 1545 1548 1551 1554 1556 1558 1560 1561 1563 1564 1565 1566 1566 1567 1567 1567 1567 1567 1567 1567 1567 1567 1567 1567 1567
1519 1523 1527 1535 1537 1545 1545 1532 1506 1504 1502 1503 1503 1505 1507 1509 1512 1516 1519 1523 1527 1531 1535 1539 1543 1547 1550 1553 1555 1557 1559 1561 1563 1564 1565 1566 1566 1567 1567 1568 1568 1568 1568 1568 1568 1568 1568 1567 1567
1510 1515 1523 1533 1537 1538 1541 1530 1499 1499 1499 1500 1501 1503 1505 1508 1511 1514 1518 1521 1525 1529 1533 1537 1541 1545 1548 1551 1554 1556 1559 1561 1562 1563 1564 1565 1566 1567 1568 1568 1568 1568 1568 1568 1568 1568 1568 1568 1568